Location: Unspecified
(0.0000°N, 0.0000°E)
Time: 08:44:08
(UTC+02:00)

ARIANE 5 R/B - Visible Passes

Search period start: 19 June 2018 00:00
Search period end: 29 June 2018 00:00
Orbit: 675 x 38426 km, 6.5° (Epoch: 18 June)

Date Brightness Start Highest point End Pass type
(mag) Time Alt. Az. Time Alt. Az. Time Alt. Az.
19 Jun 5.7 04:54:29 10° W 06:40:05 57° WNW 15:47:57 10° ESE visible
20 Jun 6.2 03:52:42 10° W 05:41:26 72° WNW 14:50:39 10° ESE visible
21 Jun 6.8 02:52:38 10° W 05:16:45 83° NNW 13:53:14 10° ESE visible
22 Jun 7.4 01:53:39 10° W 02:26:44 80° N 12:55:33 10° ESE visible
23 Jun 7.3 00:55:21 10° W 01:14:29 79° N 11:57:29 10° E visible
23 Jun 6.6 23:57:32 10° W 00:09:55 79° N 10:58:48 10° E visible
24 Jun 5.8 23:00:01 10° W 23:08:33 80° N 09:59:11 10° E visible
25 Jun 5.0 22:02:39 10° W 22:08:51 83° N 08:58:07 10° E visible
26 Jun 4.2 21:05:22 10° W 21:10:05 89° N 21:33:37 10° E visible
27 Jun 10.3 00:55:10 10° E 06:14:44 47° E 07:54:34 10° E visible
27 Jun 3.5 20:07:57 10° W 20:11:53 80° S 20:23:03 10° E visible
28 Jun 10.6 01:40:13 10° E 05:16:21 32° E 06:46:04 10° E visible
